{"data":{"norad_id":42741,"intl_designator":"2017-029B","name":"EUTELSAT 172B","alt_names":[],"object_type":"PAYLOAD","status":"ACTIVE","operator":null,"country":"EUTE","launch_date":"2017-06-01","launch_site_code":"FRGUI","launch_vehicle":null,"mission":null,"orbit_class":"UNKNOWN","rcs_meters":null,"size_class":null,"mass_kg":null,"dimensions":null,"purposes":["comms"],"wikipedia_slug":null,"has_3d_model":false,"image_url":null,"decayed_at":null,"tle_current":{"epoch":"2026-09-19T21:12:34.435296Z","epoch_age_seconds":80386,"freshness":"FRESH","line1":"1 42741U 17029B   26262.88373189 -.00000010  00000+0  00000+0 0  9992","line2":"2 42741   0.0239 141.5619 0000312 291.2502  56.1299  1.00273051 34703","mean_motion":1.00273051,"eccentricity":3.12e-5,"inclination_deg":0.0239,"raan_deg":141.5619,"arg_perigee_deg":291.2502,"mean_anomaly_deg":56.1299,"bstar":0,"rev_number":3470,"period_min":1436.0787725508,"perigee_km":35784.924530603,"apogee_km":35787.555587732,"semimajor_km":42164.377059168,"source":"CELESTRAK","updated_at":"2026-09-20T09:00:35.254171Z"}}}